Regional Weather Roundup
Issued by NWS Kansas City/Pleasant Hill, MO

Home | Current Version | Previous Version | Text Only | Print | Product List | Glossary On
Versions: 1 2 3 4 5 6 7 8 9 10 11 12 13 14 15 16 17 18 19 20 21 22 23 24 25 26 27 28 29 30 31 32 33 34 35 36 37 38 39 40 41 42 43 44 45 46 47 48 49 50
000
ASUS43 KEAX 050304
RWREAX

WEATHER ROUNDUP FOR EASTERN KANSAS AND NORTHWEST MISSOURI
NATIONAL WEATHER SERVICE KANSAS CITY/PLEASANT HILL MO
900 PM CST WED MAR 04 2015

KSZ040-057-103>105-MOZ028-029-037-043-050400-
...KANSAS CITY METROPOLITAN AREA...

CITY           SKY/WX    TMP DP  RH WIND       PRES   REMARKS
K.C. INTL      NOT AVBL
K.C. DOWNTOWN  NOT AVBL
LEES SUMMIT    NOT AVBL
OLATHE - IXD   NOT AVBL
OLATHE - OJC   NOT AVBL

$$

MOZ001>008-011>017-020>025-030>033-038>040-044>046-053-054-050400-
...NORTHERN AND CENTRAL MISSOURI...

CITY           SKY/WX    TMP DP  RH WIND       PRES   REMARKS
ST. JOSEPH     NOT AVBL
WHITEMAN AFB   NOT AVBL
CLINTON        NOT AVBL
SEDALIA        NOT AVBL
WARSAW         NOT AVBL
MARSHALL       FAIR      27  10  50 CALM      30.36F
CHILLICOTHE      N/A     27   6  41 N12G18    30.39R WCI  17
MOBERLY        FAIR      23   7  50 SE3       30.36R
KIRKSVILLE     NOT AVBL

$$

MOZ041-047>049-056>058-063>065-088>090-097-050400-
...EASTERN AND SOUTHERN MISSOURI...

CITY           SKY/WX    TMP DP  RH WIND       PRES   REMARKS
ST. LOUIS INTL NOT AVBL
MEXICO         FAIR      23  12  63 CALM      30.37R
NEVADA         CLOUDY    25  10  54 NE6       30.38S WCI  18

$$

IAZ060-094-KSZ022-034>040-054-083-096-NEZ052-066-093-050400-
...KANSAS...SOUTHEAST NEBRASKA AND IOWA...

CITY           SKY/WX    TMP DP  RH WIND       PRES   REMARKS
TOPEKA         NOT AVBL

$$



USA.gov is the U.S. government's official web portal to all federal, state and local government web resources and services.